[[{"header":{"parameterUnit":"m.s-1","parameterCategory":1,"la1":30.2992,"la2":30.254,"lo1":-89.0895,"lo2":-89.0443,"dy":0.0025,"dx":0.0025,"nx":19,"ny":19,"refTime":"2026-04-30T09:00:00:Z","depth":0,"parameterNumber":2,"parameterNumberName":"U-component_of_WINDS"},"data":[0,0,0,-0.5396,-0.5395,-0.5325,-0.5324,-0.5256,-0.5256,0,0,0,0,0,0,0,0,0,0,0,-0.5431,-0.5432,-0.5397,-0.5395,-0.5325,-0.5324,-0.5256,-0.5256,0,0,0,0,0,0,0,0,0,0,0,-0.5431,-0.5432,-0.5432,-0.5395,-0.5325,-0.5324,-0.5257,-0.5302,0,0,0,0,0,0,0,0,0,0,-0.5366,-0.5413,-0.5431,-0.5432,-0.5395,-0.5325,-0.5324,-0.5303,-0.5299,-0.5298,0,-0.5302,0,-0.5278,-0.5253,-0.5253,0,0,0,-0.5384,-0.5417,-0.5385,-0.5432,-0.5394,-0.5325,-0.5354,-0.5301,-0.5295,-0.5292,-0.53,-0.5297,-0.5277,-0.5253,-0.5252,-0.5285,-0.5286,0,0,-0.5388,-0.5426,-0.5389,-0.5382,-0.5395,-0.5356,-0.5352,-0.5297,-0.5309,-0.53,-0.5295,-0.5276,-0.5252,-0.5252,-0.5284,-0.5285,0,0,0,-0.5407,-0.543,-0.5398,-0.5386,-0.5371,-0.5354,-0.5349,-0.5311,-0.5298,-0.5294,-0.5275,-0.5252,-0.5251,-0.5283,-0.5284,-0.5355,0,0,0,-0.5408,-0.544,-0.5401,-0.5423,-0.5373,-0.5341,-0.5365,-0.5302,-0.5294,-0.5275,-0.5252,-0.5251,-0.5283,-0.5284,-0.5351,-0.5381,0,0,0,-0.5431,-0.5443,-0.5437,-0.5426,-0.5397,-0.534,-0.5324,-0.5299,-0.5283,-0.5253,-0.5251,-0.5282,-0.5284,-0.5348,-0.5376,-0.5401,0,0,0,-0.5466,-0.5501,-0.5439,-0.547,-0.5398,-0.5385,-0.5324,-0.5312,-0.5294,-0.5252,-0.5283,-0.5284,-0.5347,-0.5373,-0.5398,-0.543,-0.5446,0,0,-0.5531,-0.551,-0.5524,-0.5467,-0.5475,-0.5392,-0.5409,-0.5357,-0.5319,-0.5298,-0.5298,-0.5352,-0.5376,-0.5401,-0.5526,-0.5539,0,0,0,-0.5558,-0.5569,-0.5563,-0.5548,-0.5509,-0.5478,-0.5419,-0.5399,-0.538,-0.5316,-0.5366,-0.5379,-0.5392,-0.5406,-0.5417,-0.5426,-0.5292,-0.5292,-0.5292,-0.5704,-0.5654,-0.5675,-0.5616,-0.5602,-0.5541,-0.5525,-0.5488,-0.544,-0.5453,-0.5447,-0.5529,-0.5546,-0.5555,-0.5564,-0.5459,-0.5459,-0.546,-0.546,-0.5794,-0.5802,-0.5738,-0.5736,-0.5682,-0.5679,-0.5621,-0.5587,-0.5576,-0.553,-0.5539,-0.5493,-0.5571,-0.5577,-0.5464,-0.5464,-0.5463,-0.5463,-0.5462,-0.5885,-0.588,-0.5856,-0.5829,-0.5814,-0.5752,-0.5744,-0.5695,-0.5649,-0.5657,-0.5645,-0.5644,-0.5637,-0.5655,-0.5655,-0.5656,-0.5656,-0.5656,-0.5656,-0.5989,-0.5959,-0.596,-0.5921,-0.5904,-0.5877,-0.5814,-0.5797,-0.5764,-0.5729,-0.5729,-0.5681,-0.5588,-0.5566,-0.566,-0.566,-0.5659,-0.5659,-0.5658,-0.6101,-0.6067,-0.6068,-0.6052,-0.6001,-0.5989,-0.5926,-0.5894,-0.5872,-0.587,-0.5819,-0.5759,-0.5734,-0.5724,-0.5706,-0.583,-0.583,-0.583,-0.583,-0.6178,-0.616,-0.6149,-0.6126,-0.6098,-0.6041,-0.6042,-0.5993,-0.5938,-0.5921,-0.5895,-0.5866,-0.5859,-0.5838,-0.5826,-0.5808,-0.5956,-0.5956,-0.5956,-0.6243,-0.622,-0.6231,-0.6177,-0.6134,-0.6098,-0.6097,-0.6073,-0.6002,-0.596,-0.5906,-0.5901,-0.5854,-0.5841,-0.5799,-0.5781,-0.5747,0,0]},{"header":{"parameterUnit":"m.s-1","parameterCategory":1,"la1":30.2992,"la2":30.254,"lo1":-89.0895,"lo2":-89.0443,"dy":0.0025,"dx":0.0025,"nx":19,"ny":19,"refTime":"2026-04-30T09:00:00:Z","depth":0,"parameterNumber":3,"parameterNumberName":"V-component_of_WINDS"},"data":[0,0,0,1.2142,1.2142,1.2133,1.2133,1.2123,1.2123,0,0,0,0,0,0,0,0,0,0,0,1.2146,1.2146,1.2142,1.2142,1.2133,1.2133,1.2123,1.2123,0,0,0,0,0,0,0,0,0,0,0,1.2146,1.2146,1.2146,1.2142,1.2133,1.2133,1.2123,1.213,0,0,0,0,0,0,0,0,0,0,1.2138,1.2142,1.2146,1.2146,1.2142,1.2133,1.2133,1.213,1.2129,1.2129,0,1.2128,0,1.2125,1.2123,1.2123,0,0,0,1.2141,1.2142,1.2139,1.2146,1.2142,1.2133,1.2137,1.213,1.2129,1.2128,1.2127,1.2127,1.2125,1.2123,1.2123,1.2122,1.2122,0,0,1.2142,1.2144,1.214,1.2139,1.214,1.2137,1.2136,1.2129,1.2129,1.2127,1.2127,1.2125,1.2123,1.2123,1.2122,1.2122,0,0,0,1.2144,1.2144,1.2142,1.2139,1.2138,1.2137,1.2136,1.2129,1.2128,1.2127,1.2125,1.2123,1.2123,1.2122,1.2122,1.2126,0,0,0,1.2144,1.2146,1.2142,1.2143,1.2138,1.2133,1.2136,1.2129,1.2128,1.2125,1.2123,1.2123,1.2122,1.2122,1.2125,1.2126,0,0,0,1.2146,1.2146,1.2145,1.2143,1.214,1.2133,1.2132,1.2128,1.2127,1.2123,1.2123,1.2122,1.2122,1.2125,1.2126,1.2127,0,0,0,1.2148,1.2147,1.2145,1.2143,1.214,1.2136,1.2132,1.2128,1.2125,1.2123,1.2122,1.2122,1.2125,1.2126,1.2127,1.2128,1.2129,0,0,1.2147,1.2147,1.2146,1.2144,1.2141,1.2137,1.2135,1.213,1.2127,1.2124,1.2124,1.2125,1.2126,1.2127,1.2135,1.2135,0,0,0,1.2146,1.2145,1.2144,1.2142,1.2139,1.2137,1.2132,1.2131,1.2129,1.2126,1.2127,1.2127,1.2128,1.2128,1.2128,1.2129,1.2122,1.2122,1.2122,1.2146,1.2145,1.2143,1.2142,1.214,1.2137,1.2136,1.2134,1.2132,1.2133,1.2131,1.2135,1.2136,1.2136,1.2137,1.2132,1.2132,1.2132,1.2132,1.2144,1.2143,1.2143,1.2142,1.2141,1.214,1.2139,1.2138,1.2138,1.2136,1.2136,1.2133,1.2137,1.2138,1.2132,1.2132,1.2132,1.2132,1.2132,1.2143,1.2142,1.2143,1.2142,1.2142,1.2142,1.2142,1.2142,1.2141,1.2142,1.2141,1.2141,1.214,1.2142,1.2142,1.2142,1.2142,1.2142,1.2142,1.2141,1.2142,1.2142,1.2142,1.2143,1.2143,1.2144,1.2144,1.2145,1.2145,1.2145,1.2143,1.2138,1.2137,1.2142,1.2142,1.2142,1.2142,1.2142,1.2138,1.214,1.214,1.2141,1.2143,1.2145,1.2145,1.2148,1.2149,1.2149,1.2149,1.2146,1.2145,1.2144,1.2143,1.2149,1.2149,1.2149,1.2149,1.2137,1.2137,1.2139,1.2141,1.2143,1.2145,1.2148,1.215,1.2152,1.2153,1.2153,1.2152,1.2151,1.215,1.215,1.2148,1.2156,1.2156,1.2156,1.2135,1.2136,1.2137,1.2141,1.2143,1.2146,1.2149,1.2153,1.2155,1.2156,1.2154,1.2154,1.2152,1.2152,1.2149,1.2148,1.2146,0,0]}]]